Вернуться в каталог

SL-12 R/B(2)

АктивенGEO
NORAD 14117·ROCKET BODY·🇷🇺 Russia

Запущен Feb 5, 1982 с Baikonur Cosmodrome

Loading…

TLE

СвежийSource: Space-Track

Эпоха: Sep 14, 2026, 06:59 UTC

1 14117U 82009F   26257.29145772  .00000106  00000-0  00000-0 0  9999
2 14117   6.2504 293.1107 0037323 202.7345 329.7573  1.00979382124335

Отслеживайте SL-12 R/B(2) в реальном времени с AllMySat

Download on the App Store